• In Moldova, Republic
  • List of Countries
  • For 7 days
  • Water Temperature
  • Satellite Maps
  • Weather Map
  • Weather Widgets
  • user-avatar
    Login

    Hourly Weather Konstantyna

    Today, 22 February, Thursday

    Time Temperature Precipitation Wind Pressure Humidity
    00:00 +5°C° 0.7 mm 2 mps 698 mmHg 93%
    01:00 +5°C° 0.3 mm 2 mps 698 mmHg 93%
    02:00 +5°C° 0.3 mm 2 mps 698 mmHg 93%
    03:00 +5°C° 0.3 mm 2 mps 697 mmHg 92%
    04:00 +4°C° 0.1 mm 2 mps 697 mmHg 91%
    05:00 +4°C° 0.1 mm 2 mps 697 mmHg 91%
    06:00 +3°C° 0.1 mm 2 mps 697 mmHg 90%
    07:00 +3°C° 0 mm 3 mps 698 mmHg 84%
    08:00 +4°C° 0 mm 3 mps 698 mmHg 79%
    09:00 +5°C° 0 mm 4 mps 699 mmHg 73%
    10:00 +6°C° 0.2 mm 4 mps 699 mmHg 71%
    11:00 +7°C° 0.2 mm 4 mps 699 mmHg 68%
    12:00 +7°C° 0.2 mm 4 mps 699 mmHg 66%
    13:00 +7°C° 0.5 mm 5 mps 699 mmHg 68%
    14:00 +6°C° 0.5 mm 5 mps 699 mmHg 70%
    15:00 +6°C° 0.5 mm 5 mps 699 mmHg 73%
    16:00 +5°C° 0.3 mm 5 mps 699 mmHg 78%
    17:00 +4°C° 0.3 mm 4 mps 699 mmHg 83%
    18:00 +3°C° 0.3 mm 3 mps 699 mmHg 88%
    19:00 +3°C° 0.1 mm 3 mps 700 mmHg 89%
    20:00 +3°C° 0.1 mm 2 mps 700 mmHg 90%
    21:00 +3°C° 0.1 mm 2 mps 700 mmHg 91%
    22:00 +3°C° 0 mm 2 mps 700 mmHg 91%
    23:00 +2°C° 0 mm 2 mps 700 mmHg 91%

    Tomorrow, 23 February, Friday

    Time Temperature Precipitation Wind Pressure Humidity
    00:00 +2°C° 0 mm 2 mps 700 mmHg 91%
    01:00 +2°C° 0 mm 2 mps 700 mmHg 91%
    02:00 +1°C° 0 mm 2 mps 700 mmHg 91%
    03:00 +1°C° 0 mm 2 mps 700 mmHg 91%
    04:00 +1°C° 0 mm 2 mps 700 mmHg 90%
    05:00 +1°C° 0 mm 2 mps 700 mmHg 90%
    06:00 +1°C° 0 mm 2 mps 700 mmHg 90%
    07:00 +2°C° 0 mm 2 mps 700 mmHg 82%
    08:00 +4°C° 0 mm 2 mps 701 mmHg 75%
    09:00 +6°C° 0 mm 2 mps 701 mmHg 67%
    10:00 +7°C° 0 mm 2 mps 701 mmHg 61%
    11:00 +8°C° 0 mm 2 mps 702 mmHg 56%
    12:00 +9°C° 0 mm 3 mps 702 mmHg 50%
    13:00 +9°C° 0.2 mm 3 mps 702 mmHg 50%
    14:00 +9°C° 0.2 mm 3 mps 701 mmHg 51%
    15:00 +9°C° 0.2 mm 3 mps 701 mmHg 51%
    16:00 +8°C° 0.3 mm 2 mps 701 mmHg 60%
    17:00 +7°C° 0.3 mm 2 mps 702 mmHg 69%
    18:00 +6°C° 0.3 mm 2 mps 702 mmHg 77%
    19:00 +6°C° 0 mm 1 mps 702 mmHg 81%
    20:00 +5°C° 0 mm 1 mps 702 mmHg 84%
    21:00 +4°C° 0 mm 1 mps 703 mmHg 88%
    22:00 +4°C° 0 mm 1 mps 703 mmHg 88%
    23:00 +4°C° 0 mm 1 mps 703 mmHg 88%

    Day after tomorrow, 24 February, Saturday

    Time Temperature Precipitation Wind Pressure Humidity
    00:00 +3°C° 0 mm 1 mps 703 mmHg 89%
    01:00 +3°C° 0 mm 1 mps 702 mmHg 88%
    02:00 +3°C° 0 mm 1 mps 702 mmHg 87%
    03:00 +3°C° 0 mm 1 mps 702 mmHg 86%
    04:00 +3°C° 0 mm 1 mps 702 mmHg 84%
    05:00 +3°C° 0 mm 1 mps 702 mmHg 83%
    06:00 +3°C° 0 mm 1 mps 702 mmHg 82%
    07:00 +5°C° 0 mm 1 mps 702 mmHg 74%
    08:00 +7°C° 0 mm 1 mps 703 mmHg 67%
    09:00 +8°C° 0 mm 2 mps 703 mmHg 60%
    10:00 +10°C° 0 mm 2 mps 703 mmHg 56%
    11:00 +12°C° 0 mm 2 mps 703 mmHg 52%
    12:00 +13°C° 0 mm 2 mps 702 mmHg 48%
    13:00 +12°C° 0.1 mm 3 mps 702 mmHg 51%
    14:00 +12°C° 0.1 mm 3 mps 702 mmHg 55%
    15:00 +12°C° 0.1 mm 3 mps 702 mmHg 58%
    16:00 +12°C° 0.3 mm 2 mps 702 mmHg 66%
    17:00 +9°C° 0.3 mm 2 mps 702 mmHg 74%
    18:00 +9°C° 0.3 mm 1 mps 702 mmHg 83%
    19:00 +9°C° 0.3 mm 1 mps 702 mmHg 85%
    20:00 +8°C° 0.3 mm 1 mps 702 mmHg 87%
    21:00 +8°C° 0.3 mm 1 mps 702 mmHg 89%
    22:00 +8°C° 0.6 mm 1 mps 702 mmHg 91%
    23:00 +7°C° 0.6 mm 1 mps 702 mmHg 94%

    25 February, Sunday

    Time Temperature Precipitation Wind Pressure Humidity
    00:00 +7°C° 0.6 mm 1 mps 702 mmHg 96%
    01:00 +7°C° 0.3 mm 1 mps 702 mmHg 96%
    02:00 +7°C° 0.3 mm 1 mps 702 mmHg 95%
    03:00 +7°C° 0.3 mm 1 mps 702 mmHg 95%
    04:00 +6°C° 0.2 mm 2 mps 702 mmHg 94%
    05:00 +6°C° 0.2 mm 2 mps 703 mmHg 93%
    06:00 +6°C° 0.2 mm 2 mps 703 mmHg 92%
    07:00 +5°C° 0.2 mm 3 mps 704 mmHg 88%
    08:00 +7°C° 0.2 mm 3 mps 704 mmHg 83%
    09:00 +6°C° 0.2 mm 4 mps 705 mmHg 79%
    10:00 +7°C° 0.1 mm 4 mps 705 mmHg 76%
    11:00 +7°C° 0.1 mm 5 mps 705 mmHg 73%
    12:00 +7°C° 0.1 mm 5 mps 705 mmHg 71%
    13:00 +7°C° 0.1 mm 5 mps 705 mmHg 68%
    14:00 +7°C° 0.1 mm 6 mps 705 mmHg 66%
    15:00 +7°C° 0.1 mm 6 mps 705 mmHg 64%
    16:00 +6°C° 0 mm 5 mps 705 mmHg 68%
    17:00 +5°C° 0 mm 4 mps 705 mmHg 73%
    18:00 +4°C° 0 mm 3 mps 705 mmHg 77%
    19:00 +3°C° 0 mm 3 mps 706 mmHg 78%
    20:00 +3°C° 0 mm 3 mps 706 mmHg 79%
    21:00 +3°C° 0 mm 3 mps 706 mmHg 80%
    22:00 +2°C° 0 mm 3 mps 706 mmHg 80%
    23:00 +2°C° 0 mm 3 mps 706 mmHg 79%

    26 February, Monday

    Time Temperature Precipitation Wind Pressure Humidity
    00:00 +2°C° 0 mm 3 mps 706 mmHg 79%
    01:00 +2°C° 0 mm 3 mps 705 mmHg 79%
    02:00 +2°C° 0 mm 3 mps 705 mmHg 78%
    03:00 +3°C° 0 mm 2 mps 705 mmHg 78%
    04:00 +3°C° 0 mm 2 mps 705 mmHg 75%
    05:00 +2°C° 0 mm 2 mps 705 mmHg 73%
    06:00 +2°C° 0 mm 2 mps 705 mmHg 71%
    07:00 +5°C° 0 mm 2 mps 705 mmHg 62%
    08:00 +7°C° 0 mm 2 mps 705 mmHg 54%
    09:00 +10°C° 0 mm 2 mps 705 mmHg 46%
    10:00 +11°C° 0 mm 3 mps 705 mmHg 41%
    11:00 +13°C° 0 mm 3 mps 705 mmHg 36%
    12:00 +14°C° 0 mm 4 mps 705 mmHg 32%
    13:00 +14°C° 0 mm 4 mps 704 mmHg 34%
    14:00 +14°C° 0 mm 4 mps 704 mmHg 37%
    15:00 +15°C° 0 mm 4 mps 703 mmHg 39%
    16:00 +12°C° 0 mm 3 mps 703 mmHg 48%
    17:00 +10°C° 0 mm 2 mps 702 mmHg 58%
    18:00 +9°C° 0 mm 1 mps 702 mmHg 67%
    19:00 +8°C° 0 mm 1 mps 702 mmHg 69%
    20:00 +8°C° 0 mm 1 mps 702 mmHg 70%
    21:00 +7°C° 0 mm 1 mps 702 mmHg 72%
    22:00 +7°C° 0 mm 1 mps 701 mmHg 72%
    23:00 +7°C° 0 mm 1 mps 701 mmHg 72%

    27 February, Tuesday

    Time Temperature Precipitation Wind Pressure Humidity
    00:00 +7°C° 0 mm 1 mps 700 mmHg 72%
    01:00 +7°C° 0.1 mm 1 mps 700 mmHg 72%
    02:00 +7°C° 0.1 mm 1 mps 700 mmHg 71%
    03:00 +7°C° 0.1 mm 1 mps 700 mmHg 71%
    04:00 +7°C° 0 mm 1 mps 699 mmHg 74%
    05:00 +6°C° 0 mm 1 mps 699 mmHg 76%
    06:00 +6°C° 0 mm 1 mps 699 mmHg 78%
    07:00 +7°C° 0 mm 1 mps 700 mmHg 74%
    08:00 +9°C° 0 mm 1 mps 700 mmHg 69%
    09:00 +10°C° 0 mm 1 mps 701 mmHg 65%
    10:00 +11°C° 0 mm 1 mps 701 mmHg 64%
    11:00 +12°C° 0 mm 2 mps 701 mmHg 62%
    12:00 +13°C° 0 mm 2 mps 701 mmHg 60%
    13:00 +12°C° 0.1 mm 2 mps 701 mmHg 63%
    14:00 +11°C° 0.1 mm 3 mps 701 mmHg 66%
    15:00 +11°C° 0.1 mm 3 mps 701 mmHg 69%
    16:00 +10°C° 0.2 mm 2 mps 701 mmHg 75%
    17:00 +9°C° 0.2 mm 2 mps 702 mmHg 81%
    18:00 +9°C° 0.2 mm 1 mps 702 mmHg 87%
    19:00 +9°C° 0.4 mm 1 mps 702 mmHg 88%
    20:00 +8°C° 0.4 mm 1 mps 703 mmHg 89%
    21:00 +8°C° 0.4 mm 1 mps 703 mmHg 91%
    22:00 +8°C° 0 mm 1 mps 703 mmHg 91%
    23:00 +8°C° 0 mm 1 mps 703 mmHg 91%
    Show more